Overview Statistics Trail Chart Weather Telemetry Raw packets
 

This is the latest recevied weather packets stored in our database for station/object JE6MIQ-13. If no packets are shown the sender has not sent any weather packets the latest 10 day(s).

<< 3 4 5 6 7 8 9 >>
Time Temp. Humidity Pressure Rain* Wind** Luminosity Snow
1788507651 23.89° C 68% 1004.2 hPa 0 mm - - -
1788506775 23.89° C 68% 1005.2 hPa 0 mm - - -
1788505851 24.44° C 68% 1004.7 hPa 1.02 mm - - -
1788504952 24.44° C 69% 1004.8 hPa 1.02 mm - - -
1788504052 24.44° C 68% 1004.2 hPa 1.02 mm - - -
1788503152 24.44° C 68% 1004.5 hPa 1.02 mm - - -
1788502253 24.44° C 70% 1004.4 hPa 0 mm - - -
1788501351 24.44° C 71% 1004.6 hPa 1.02 mm - - -
1788500453 24.44° C 72% 1004.7 hPa 1.02 mm - - -
1788499553 24.44° C 73% 1004.5 hPa 1.02 mm - - -
1788498653 24.44° C 72% 1004.6 hPa 1.02 mm - - -
1788497751 24.44° C 74% 1005.1 hPa 1.02 mm - - -
1788496853 24.44° C 75% 1005.1 hPa 1.02 mm - - -
1788495952 24.44° C 75% 1005.1 hPa 2.03 mm - - -
1788495053 24.44° C 75% 1005.3 hPa 2.03 mm - - -
1788494152 24.44° C 76% 1005.2 hPa 1.02 mm - - -
1788493252 24.44° C 78% 1005 hPa 2.03 mm - - -
1788492352 24.44° C 81% 1005.3 hPa 2.03 mm - - -
1788491452 24.44° C 81% 1005 hPa 3.05 mm - - -
1788490553 24.44° C 81% 1004.5 hPa 4.32 mm - - -
1788489652 24.44° C 81% 1004.6 hPa 4.32 mm - - -
1788488752 24.44° C 81% 1005.1 hPa 4.32 mm - - -
1788487851 24.44° C 81% 1005 hPa 4.32 mm - - -
1788486952 24.44° C 81% 1005.3 hPa 4.06 mm - - -
1788486053 24.44° C 81% 1005.2 hPa 3.05 mm - - -

* Rain latest hour (hover to see other rain measurements)
** Current wind speed in m/s (hover to see current wind gust speed)